THY7HQ LTFM-LEVC

Flight info

Callsign THY7HQ
Flight time N/A
Altitude 40000
Route BARPE UG12 GOLDO DCT PINDO/N0481F410 DCT VEGAN DCT GOKMI DCT SUPUX DCT KUPIM DCT SUXER DCT RIPAL DCT MORSS DCT MHN DCT CDP N733 ARGOR
Aircraft A359/H-SDE2E3GHIJ3J4J5LM1ORWXY/LB1D1

Departure

Time 2026-05-05 10:36
Airport İstanbul Airport (LTFM)

Arrival

Time N/A
Airport Valencia Airport (LEVC)
Time Latitude Longitude Altitude Speed Heading
2026-05-05 10:03 41.25912 28.73525 340 ft 0 kts 104°
2026-05-05 10:26 41.25919 28.73496 335 ft 4 kts 115°
2026-05-05 10:26 41.25932 28.73466 335 ft 4 kts 132°
2026-05-05 10:27 41.25952 28.73444 335 ft 4 kts 160°
2026-05-05 10:27 41.25973 28.73440 335 ft 1 kts 196°
2026-05-05 10:29 41.25973 28.73441 335 ft 0 kts 196°
2026-05-05 10:31 41.25959 28.73435 335 ft 6 kts 196°
2026-05-05 10:31 41.25913 28.73393 335 ft 9 kts 241°
2026-05-05 10:32 41.25911 28.73300 337 ft 11 kts 272°
2026-05-05 10:32 41.25910 28.73186 336 ft 10 kts 269°
2026-05-05 10:32 41.25938 28.73129 337 ft 8 kts 338°
2026-05-05 10:32 41.25999 28.73126 336 ft 10 kts 359°
2026-05-05 10:33 41.26076 28.73124 336 ft 12 kts 359°
2026-05-05 10:33 41.26158 28.73123 338 ft 12 kts 359°
2026-05-05 10:33 41.26215 28.73084 336 ft 9 kts 299°
2026-05-05 10:33 41.26216 28.72994 338 ft 13 kts 268°
2026-05-05 10:34 41.26213 28.72867 340 ft 15 kts 268°
2026-05-05 10:34 41.26211 28.72722 339 ft 17 kts 268°
2026-05-05 10:34 41.26209 28.72586 336 ft 13 kts 269°
2026-05-05 10:34 41.26226 28.72526 335 ft 5 kts 323°
2026-05-05 10:35 41.26261 28.72524 339 ft 2 kts
2026-05-05 10:35 41.26264 28.72524 339 ft 0 kts 360°
2026-05-05 10:35 41.26338 28.72523 337 ft 34 kts 359°
2026-05-05 10:36 41.26832 28.72510 338 ft 105 kts 359°
2026-05-05 10:36 41.27774 28.72489 353 ft 163 kts 359°
2026-05-05 10:36 41.28936 28.72455 1089 ft 160 kts 359°
2026-05-05 10:36 41.30075 28.72441 1810 ft 173 kts
2026-05-05 10:37 41.31394 28.72461 2082 ft 206 kts
2026-05-05 10:37 41.32919 28.72512 2518 ft 232 kts
2026-05-05 10:37 41.34582 28.72551 3207 ft 242 kts
2026-05-05 10:37 41.36254 28.72211 4087 ft 245 kts 339°
2026-05-05 10:38 41.37606 28.70862 5044 ft 249 kts 310°
2026-05-05 10:38 41.38238 28.68691 5877 ft 262 kts 280°
2026-05-05 10:38 41.38242 28.66202 6666 ft 274 kts 271°
2026-05-05 10:38 41.38145 28.63662 7588 ft 275 kts 273°
2026-05-05 10:39 41.38005 28.61098 8531 ft 281 kts 265°
2026-05-05 10:39 41.37635 28.58523 9506 ft 286 kts 263°
2026-05-05 10:39 41.37184 28.55913 10340 ft 294 kts 261°
2026-05-05 10:39 41.36672 28.53211 10747 ft 316 kts 260°
2026-05-05 10:40 41.36089 28.50282 11140 ft 338 kts 259°
2026-05-05 10:40 41.35457 28.47189 11696 ft 353 kts 258°
2026-05-05 10:40 41.34797 28.44007 12473 ft 360 kts 258°
2026-05-05 10:40 41.34129 28.40774 13279 ft 366 kts 258°
2026-05-05 10:41 41.33452 28.37478 14061 ft 371 kts 258°
2026-05-05 10:41 41.32771 28.34153 14807 ft 374 kts 258°
2026-05-05 10:41 41.32086 28.30796 15578 ft 377 kts 259°
2026-05-05 10:41 41.31396 28.27405 16316 ft 382 kts 259°
2026-05-05 10:42 41.29996 28.20513 17794 ft 390 kts 259°
2026-05-05 10:42 41.29284 28.17011 18536 ft 394 kts 258°
2026-05-05 10:42 41.28562 28.13477 19252 ft 397 kts 258°
2026-05-05 10:43 41.27836 28.09932 20017 ft 399 kts 258°
2026-05-05 10:43 41.27104 28.06368 20774 ft 401 kts 258°
2026-05-05 10:43 41.26367 28.02780 21433 ft 405 kts 258°
2026-05-05 10:43 41.25620 27.99152 22154 ft 408 kts 258°
2026-05-05 10:44 41.24867 27.95502 22898 ft 410 kts 258°
2026-05-05 10:44 41.24109 27.91829 23597 ft 414 kts 258°
2026-05-05 10:44 41.23344 27.88129 23966 ft 416 kts 258°
2026-05-05 10:44 41.22576 27.84424 24066 ft 416 kts 258°
2026-05-05 10:45 41.21804 27.80705 24077 ft 418 kts 257°
2026-05-05 10:45 41.21029 27.76983 24073 ft 419 kts 257°
2026-05-05 10:45 41.20263 27.73310 24074 ft 419 kts 257°
2026-05-05 10:45 41.19485 27.69581 24073 ft 419 kts 257°
2026-05-05 10:46 41.18705 27.65854 24073 ft 419 kts 257°
2026-05-05 10:46 41.17924 27.62127 24070 ft 419 kts 257°
2026-05-05 10:46 41.17142 27.58400 24065 ft 419 kts 257°
2026-05-05 10:46 41.16361 27.54683 24069 ft 417 kts 257°
2026-05-05 10:47 41.15582 27.50986 24066 ft 415 kts 257°
2026-05-05 10:47 41.14805 27.47303 24053 ft 415 kts 257°
2026-05-05 10:47 41.14025 27.43611 24058 ft 416 kts 257°
2026-05-05 10:47 41.13241 27.39907 24062 ft 418 kts 257°
2026-05-05 10:48 41.12455 27.36193 24062 ft 418 kts 257°
2026-05-05 10:48 41.11666 27.32479 24063 ft 419 kts 257°
2026-05-05 10:48 41.10874 27.28757 24064 ft 419 kts 257°
2026-05-05 10:48 41.10083 27.25043 24063 ft 419 kts 257°
2026-05-05 10:49 41.09290 27.21331 24064 ft 419 kts 257°
2026-05-05 10:49 41.08496 27.17620 24060 ft 419 kts 257°
2026-05-05 10:49 41.07701 27.13907 24058 ft 419 kts 257°
2026-05-05 10:49 41.06904 27.10195 24061 ft 418 kts 257°
2026-05-05 10:50 41.06107 27.06484 24059 ft 418 kts 257°
2026-05-05 10:50 41.05308 27.02776 24059 ft 418 kts 257°
2026-05-05 10:50 41.04509 26.99071 24058 ft 418 kts 257°
2026-05-05 10:50 41.03708 26.95367 24059 ft 418 kts 257°
2026-05-05 10:51 41.02906 26.91663 24061 ft 418 kts 257°
2026-05-05 10:51 41.02103 26.87957 24062 ft 418 kts 257°
2026-05-05 10:51 41.01299 26.84260 24052 ft 419 kts 257°
2026-05-05 10:51 41.00492 26.80546 24057 ft 420 kts 257°
2026-05-05 10:52 40.99690 26.76869 24063 ft 421 kts 257°
2026-05-05 10:52 40.98877 26.73146 24060 ft 420 kts 257°
2026-05-05 10:52 40.98067 26.69443 24064 ft 418 kts 257°
2026-05-05 10:52 40.97257 26.65749 24060 ft 418 kts 257°
2026-05-05 10:53 40.96447 26.62060 24066 ft 418 kts 257°
2026-05-05 10:53 40.95637 26.58376 24064 ft 418 kts 257°
2026-05-05 10:53 40.94823 26.54679 24055 ft 418 kts 257°
2026-05-05 10:53 40.94007 26.50978 24068 ft 419 kts 257°
2026-05-05 10:54 40.93188 26.47274 24065 ft 420 kts 257°
2026-05-05 10:54 40.92367 26.43566 24064 ft 420 kts 257°
2026-05-05 10:54 40.91545 26.39857 24071 ft 420 kts 257°
2026-05-05 10:54 40.90723 26.36155 24073 ft 420 kts 257°
2026-05-05 10:55 40.89898 26.32450 24066 ft 420 kts 257°
2026-05-05 10:55 40.89075 26.28753 24068 ft 418 kts 257°
2026-05-05 10:55 40.88421 26.25036 24060 ft 414 kts 265°
2026-05-05 10:55 40.88062 26.21267 24074 ft 413 kts 268°
2026-05-05 10:56 40.87793 26.17476 24074 ft 414 kts 269°
2026-05-05 10:56 40.87576 26.13676 24332 ft 416 kts 270°
2026-05-05 10:56 40.87381 26.09848 24907 ft 418 kts 270°
2026-05-05 10:56 40.87191 26.06056 25508 ft 420 kts 270°
2026-05-05 10:57 40.86997 26.02201 26118 ft 422 kts 270°
2026-05-05 10:57 40.86794 25.98313 26685 ft 425 kts 269°
2026-05-05 10:57 40.86584 25.94400 27227 ft 429 kts 269°
2026-05-05 10:57 40.86368 25.90450 27734 ft 433 kts 269°
2026-05-05 10:58 40.86146 25.86468 28278 ft 436 kts 269°
2026-05-05 10:58 40.85921 25.82455 28819 ft 439 kts 269°
2026-05-05 10:58 40.85767 25.79735 29174 ft 441 kts 269°
2026-05-05 10:58 40.85536 25.75675 29681 ft 445 kts 269°
2026-05-05 10:59 40.85302 25.71591 30196 ft 447 kts 269°
2026-05-05 10:59 40.85066 25.67490 30689 ft 448 kts 269°
2026-05-05 10:59 40.84827 25.63376 31084 ft 451 kts 269°
2026-05-05 10:59 40.84586 25.59232 31463 ft 454 kts 269°
2026-05-05 11:00 40.84345 25.55116 31831 ft 457 kts 269°
2026-05-05 11:00 40.84098 25.50926 32216 ft 459 kts 269°
2026-05-05 11:00 40.83848 25.46720 32586 ft 461 kts 269°
2026-05-05 11:00 40.83596 25.42489 32949 ft 463 kts 269°
2026-05-05 11:01 40.83342 25.38244 33295 ft 465 kts 269°
2026-05-05 11:01 40.83084 25.33972 33620 ft 467 kts 269°
2026-05-05 11:01 40.82824 25.29684 33918 ft 470 kts 269°
2026-05-05 11:01 40.82560 25.25372 34205 ft 472 kts 269°
2026-05-05 11:02 40.82295 25.21060 34556 ft 471 kts 269°
2026-05-05 11:02 40.82028 25.16759 34944 ft 470 kts 269°
2026-05-05 11:02 40.81760 25.12471 35303 ft 469 kts 269°
2026-05-05 11:02 40.81490 25.08182 35641 ft 468 kts 269°
2026-05-05 11:03 40.81220 25.03897 35971 ft 468 kts 269°
2026-05-05 11:03 40.80949 24.99621 36268 ft 467 kts 269°
2026-05-05 11:03 40.80676 24.95354 36634 ft 466 kts 269°
2026-05-05 11:03 40.80403 24.91097 36953 ft 465 kts 269°
2026-05-05 11:04 40.80130 24.86848 37249 ft 465 kts 269°
2026-05-05 11:04 40.79855 24.82602 37557 ft 464 kts 269°
2026-05-05 11:04 40.79578 24.78361 37864 ft 464 kts 269°
2026-05-05 11:04 40.79300 24.74114 38144 ft 463 kts 269°
2026-05-05 11:05 40.79021 24.69884 38430 ft 463 kts 269°
2026-05-05 11:05 40.78740 24.65657 38704 ft 462 kts 269°
2026-05-05 11:05 40.78461 24.61480 38919 ft 462 kts 269°
2026-05-05 11:05 40.78178 24.57259 39103 ft 462 kts 269°
2026-05-05 11:06 40.77893 24.53029 39300 ft 463 kts 269°
2026-05-05 11:06 40.77606 24.48797 39470 ft 463 kts 269°
2026-05-05 11:06 40.77318 24.44566 39634 ft 463 kts 268°
2026-05-05 11:06 40.77028 24.40332 39800 ft 464 kts 268°
2026-05-05 11:07 40.76736 24.36095 39953 ft 464 kts 268°
2026-05-05 11:07 40.76442 24.31860 40128 ft 464 kts 268°
2026-05-05 11:07 40.76147 24.27626 40298 ft 464 kts 268°
2026-05-05 11:07 40.75850 24.23389 40437 ft 464 kts 268°
2026-05-05 11:08 40.75552 24.19151 40586 ft 464 kts 268°
2026-05-05 11:08 40.75252 24.14913 40729 ft 464 kts 268°
2026-05-05 11:08 40.74950 24.10671 40866 ft 464 kts 268°
2026-05-05 11:08 40.74646 24.06432 40990 ft 465 kts 268°
2026-05-05 11:09 40.74341 24.02183 41060 ft 466 kts 268°
2026-05-05 11:09 40.73725 23.93678 41064 ft 466 kts 268°
2026-05-05 11:10 40.73102 23.85175 41052 ft 466 kts 268°
2026-05-05 11:10 40.72473 23.76676 41064 ft 466 kts 268°
2026-05-05 11:11 40.71838 23.68183 41048 ft 465 kts 268°
2026-05-05 11:11 40.71198 23.59700 41045 ft 464 kts 268°
2026-05-05 11:12 40.70553 23.51240 41057 ft 464 kts 268°
2026-05-05 11:12 40.69903 23.42788 41034 ft 464 kts 268°
2026-05-05 11:13 40.69251 23.34400 41045 ft 463 kts 268°
2026-05-05 11:13 40.68585 23.25907 41050 ft 463 kts 268°
2026-05-05 11:14 40.67921 23.17528 41049 ft 463 kts 268°
2026-05-05 11:14 40.67248 23.09099 41040 ft 463 kts 268°
2026-05-05 11:15 40.66569 23.00682 41047 ft 462 kts 268°
2026-05-05 11:15 40.65885 22.92287 41048 ft 461 kts 268°
2026-05-05 11:16 40.65196 22.83899 41047 ft 460 kts 268°
2026-05-05 11:16 40.63599 22.64743 41050 ft 459 kts 268°
2026-05-05 11:17 40.60744 22.31428 41065 ft 457 kts 267°
2026-05-05 11:17 40.57803 21.98225 41091 ft 455 kts 267°
2026-05-05 11:18 40.54783 21.65257 41114 ft 452 kts 266°
2026-05-05 11:18 40.51690 21.32505 41098 ft 451 kts 266°
2026-05-05 11:19 40.48503 20.99791 41095 ft 448 kts 266°
2026-05-05 11:19 40.49344 20.67605 41096 ft 442 kts 275°
2026-05-05 11:20 40.50718 20.35379 41098 ft 441 kts 275°
2026-05-05 11:20 40.51997 20.03120 41098 ft 443 kts 274°
2026-05-05 11:21 40.53187 19.70795 41102 ft 443 kts 274°
2026-05-05 11:21 40.54291 19.38374 41116 ft 444 kts 274°
2026-05-05 11:22 40.55307 19.05855 41124 ft 445 kts 274°
2026-05-05 11:22 40.56232 18.73327 41118 ft 445 kts 273°
2026-05-05 11:23 40.57061 18.40965 41105 ft 446 kts 273°
2026-05-05 11:23 40.57805 18.08323 41079 ft 446 kts 273°
2026-05-05 11:24 40.58457 17.75697 41097 ft 445 kts 272°
2026-05-05 11:24 40.59017 17.43113 41107 ft 445 kts 272°
2026-05-05 11:25 40.59485 17.10486 41106 ft 446 kts 272°
2026-05-05 11:25 40.59863 16.77767 41157 ft 447 kts 272°
2026-05-05 11:26 40.60149 16.45003 41126 ft 447 kts 271°
2026-05-05 11:26 40.60342 16.12271 41090 ft 447 kts 271°
2026-05-05 11:27 40.60442 15.79599 41096 ft 450 kts 271°
2026-05-05 11:27 40.60450 15.46637 41103 ft 450 kts 271°
2026-05-05 11:28 40.60675 15.13747 41112 ft 448 kts 271°
2026-05-05 11:28 40.60800 14.80969 41131 ft 446 kts 271°
2026-05-05 11:29 40.60836 14.48201 41116 ft 448 kts 270°
2026-05-05 11:29 40.60777 14.15428 41117 ft 447 kts 270°
2026-05-05 11:30 40.60629 13.82976 41132 ft 445 kts 270°
2026-05-05 11:30 40.60390 13.50640 41118 ft 441 kts 270°
2026-05-05 11:31 40.60064 13.18566 41107 ft 437 kts 270°
2026-05-05 11:31 40.59653 12.86735 41094 ft 434 kts 269°
2026-05-05 11:32 40.59157 12.55003 41088 ft 432 kts 269°
2026-05-05 11:32 40.58575 12.23352 41075 ft 433 kts 268°
2026-05-05 11:33 40.57905 11.91635 41075 ft 436 kts 268°
2026-05-05 11:33 40.57144 11.59733 41058 ft 437 kts 267°
2026-05-05 11:34 40.56300 11.28032 41061 ft 436 kts 267°
2026-05-05 11:34 40.55689 11.06911 41052 ft 436 kts 267°
2026-05-05 11:35 40.55449 10.98947 41047 ft 436 kts 267°
2026-05-05 11:35 40.55203 10.90988 41045 ft 436 kts 267°
2026-05-05 11:36 40.54952 10.83030 41049 ft 436 kts 267°
2026-05-05 11:36 40.54696 10.75073 41051 ft 436 kts 267°
2026-05-05 11:37 40.54434 10.67114 41041 ft 436 kts 267°
2026-05-05 11:37 40.54167 10.59154 41047 ft 436 kts 267°
2026-05-05 11:38 40.53896 10.51255 41034 ft 435 kts 267°
2026-05-05 11:38 40.53618 10.43312 41041 ft 435 kts 266°
2026-05-05 11:39 40.53335 10.35376 41033 ft 435 kts 266°
2026-05-05 11:39 40.53046 10.27441 41030 ft 435 kts 266°
2026-05-05 11:40 40.52753 10.19506 41039 ft 435 kts 266°
2026-05-05 11:40 40.52454 10.11577 41024 ft 434 kts 266°
2026-05-05 11:41 40.52149 10.03653 41033 ft 434 kts 266°
2026-05-05 11:41 40.51839 9.95731 41019 ft 434 kts 266°
2026-05-05 11:42 40.51524 9.87811 41016 ft 434 kts 266°
2026-05-05 11:42 40.51204 9.79896 41016 ft 433 kts 266°
2026-05-05 11:43 40.50879 9.71988 41020 ft 433 kts 266°
2026-05-05 11:43 40.50548 9.64091 41016 ft 433 kts 266°
2026-05-05 11:44 40.50212 9.56192 41011 ft 433 kts 266°
2026-05-05 11:44 40.49871 9.48301 41011 ft 433 kts 266°
2026-05-05 11:45 40.49525 9.40409 41018 ft 432 kts 266°
2026-05-05 11:45 40.49173 9.32522 41015 ft 432 kts 266°
2026-05-05 11:46 40.48816 9.24646 41015 ft 432 kts 266°
2026-05-05 11:46 40.48457 9.16825 41008 ft 432 kts 266°
2026-05-05 11:47 40.48089 9.08951 41028 ft 432 kts 266°
2026-05-05 11:47 40.47781 9.02410 41009 ft 431 kts 265°
2026-05-05 11:48 40.47215 8.90619 41008 ft 431 kts 265°
2026-05-05 11:48 40.46830 8.82768 41023 ft 431 kts 265°
2026-05-05 11:49 40.46441 8.74919 41027 ft 431 kts 265°
2026-05-05 11:49 40.46046 8.67066 41014 ft 430 kts 265°
2026-05-05 11:50 40.45648 8.59242 41012 ft 429 kts 265°
2026-05-05 11:50 40.45244 8.51421 41010 ft 429 kts 265°
2026-05-05 11:51 40.44835 8.43604 41000 ft 429 kts 265°
2026-05-05 11:51 40.44421 8.35789 40998 ft 429 kts 265°
2026-05-05 11:52 40.44002 8.27971 40998 ft 428 kts 265°
2026-05-05 11:52 40.43580 8.20176 40997 ft 428 kts 265°
2026-05-05 11:53 40.43153 8.12384 40999 ft 428 kts 265°
2026-05-05 11:53 40.42720 8.04576 41001 ft 428 kts 265°
2026-05-05 11:54 40.42048 7.96825 41027 ft 427 kts 261°
2026-05-05 11:54 40.41121 7.89177 41004 ft 426 kts 260°
2026-05-05 11:55 40.40144 7.81508 41003 ft 426 kts 260°
2026-05-05 11:55 40.39160 7.73848 41000 ft 426 kts 260°
2026-05-05 11:56 40.38176 7.66179 41000 ft 426 kts 260°
2026-05-05 11:56 40.37191 7.58519 41012 ft 426 kts 259°
2026-05-05 11:57 40.36202 7.50866 41003 ft 425 kts 259°
2026-05-05 11:57 40.35210 7.43232 40997 ft 425 kts 259°
2026-05-05 11:58 40.34218 7.35645 41000 ft 425 kts 259°
2026-05-05 11:58 40.33217 7.28016 40993 ft 425 kts 259°
2026-05-05 11:59 40.32209 7.20383 40992 ft 425 kts 259°
2026-05-05 11:59 40.31197 7.12760 40990 ft 425 kts 259°
2026-05-05 12:00 40.30182 7.05139 40996 ft 425 kts 259°
2026-05-05 12:00 40.29161 6.97521 40994 ft 425 kts 259°
2026-05-05 12:01 40.28135 6.89909 40989 ft 425 kts 259°
2026-05-05 12:01 40.27103 6.82286 40980 ft 425 kts 259°
2026-05-05 12:02 40.26068 6.74682 40989 ft 424 kts 259°
2026-05-05 12:02 40.25029 6.67092 40985 ft 424 kts 259°
2026-05-05 12:03 40.23985 6.59499 40981 ft 424 kts 259°
2026-05-05 12:03 40.22935 6.51908 40978 ft 424 kts 259°
2026-05-05 12:04 40.21880 6.44312 40987 ft 424 kts 258°
2026-05-05 12:04 40.20822 6.36730 40977 ft 424 kts 258°
2026-05-05 12:05 40.19764 6.29195 40981 ft 424 kts 258°
2026-05-05 12:05 40.18694 6.21605 40977 ft 424 kts 258°
2026-05-05 12:06 40.17620 6.14024 40977 ft 424 kts 258°
2026-05-05 12:06 40.16541 6.06447 40985 ft 424 kts 258°
2026-05-05 12:07 40.15458 5.98877 40972 ft 424 kts 258°
2026-05-05 12:07 40.14369 5.91306 40970 ft 424 kts 258°
2026-05-05 12:08 40.13279 5.83740 40969 ft 424 kts 258°
2026-05-05 12:08 40.12211 5.76165 40969 ft 424 kts 258°
2026-05-05 12:09 40.11147 5.68594 40961 ft 424 kts 258°
2026-05-05 12:09 40.10075 5.61022 40963 ft 424 kts 258°
2026-05-05 12:10 40.08996 5.53458 40966 ft 424 kts 258°
2026-05-05 12:10 40.07912 5.45898 40968 ft 423 kts 258°
2026-05-05 12:11 40.06822 5.38342 40965 ft 424 kts 258°
2026-05-05 12:11 40.05729 5.30787 40967 ft 424 kts 258°
2026-05-05 12:12 40.04638 5.23289 40959 ft 424 kts 258°
2026-05-05 12:12 40.03534 5.15736 40960 ft 424 kts 258°
2026-05-05 12:13 40.02424 5.08183 40959 ft 424 kts 258°
2026-05-05 12:13 40.01310 5.00634 40956 ft 424 kts 257°
2026-05-05 12:14 40.00192 4.93090 40961 ft 424 kts 257°
2026-05-05 12:14 39.99067 4.85537 40957 ft 424 kts 257°
2026-05-05 12:15 39.97936 4.77986 40958 ft 424 kts 257°
2026-05-05 12:15 39.96632 4.70502 40961 ft 423 kts 254°
2026-05-05 12:16 39.95055 4.63167 40953 ft 423 kts 253°
2026-05-05 12:16 39.93463 4.55784 40962 ft 423 kts 253°
2026-05-05 12:17 39.91911 4.48375 40952 ft 424 kts 254°
2026-05-05 12:17 39.90378 4.40961 40952 ft 424 kts 254°
2026-05-05 12:18 39.88845 4.33548 40969 ft 424 kts 254°
2026-05-05 12:18 39.87304 4.26137 40967 ft 424 kts 254°
2026-05-05 12:19 39.85763 4.18740 40973 ft 424 kts 253°
2026-05-05 12:19 39.84218 4.11337 40970 ft 424 kts 253°
2026-05-05 12:20 39.82664 4.03940 40958 ft 424 kts 253°
2026-05-05 12:20 39.81107 3.96546 40954 ft 424 kts 253°
2026-05-05 12:21 39.79558 3.89210 40947 ft 424 kts 253°